K4IR Weather Reports


Display with metric or nautical units.
time (UTC)temp
F
wind
direction
speed
MPH
gust
MPH
rain 1hr
in
rain 24hr
in
rain mn
in
humidity
%
barometer
mb
20260505095828 49 60 0.0 0.0 0.00 0.00 0.00 98 1017.0
20260505094827 49 60 0.0 0.0 0.00 0.00 0.00 98 1017.2
20260505093825 49 60 0.0 0.0 0.00 0.00 0.00 98 1017.0
20260505092820 49 60 0.0 0.0 0.00 0.00 0.00 98 1017.1
20260505091815 49 60 0.0 0.0 0.00 0.00 0.00 98 1016.6
20260505090811 49 60 0.0 0.0 0.00 0.00 0.00 98 1016.7
20260505085806 50 60 0.0 0.0 0.00 0.00 0.00 98 1016.7
20260505084801 50 60 0.0 0.0 0.00 0.00 0.00 98 1016.7
20260505083756 50 60 0.0 0.0 0.00 0.00 0.00 98 1016.6
20260505082756 50 60 0.0 0.0 0.00 0.00 0.00 98 1016.6
20260505081754 50 60 0.0 0.0 0.00 0.00 0.00 98 1016.6
20260505080754 51 60 0.0 0.0 0.00 0.00 0.00 98 1016.6
20260505075752 51 60 0.0 0.0 0.00 0.00 0.00 97 1016.6
20260505074746 51 60 0.0 0.0 0.00 0.00 0.00 97 1016.5
20260505073741 51 60 0.0 0.0 0.00 0.00 0.00 97 1016.4
20260505072741 51 60 0.0 0.0 0.00 0.00 0.00 97 1016.5
20260505071739 51 60 0.0 0.0 0.00 0.00 0.00 97 1016.8
20260505070734 51 60 0.0 0.0 0.00 0.00 0.00 97 1016.6
20260505065731 52 60 0.0 0.0 0.00 0.00 0.00 97 1016.7
20260505064731 52 60 0.0 0.0 0.00 0.00 0.00 97 1016.6
20260505063726 52 60 0.0 0.0 0.00 0.00 0.00 97 1016.5
20260505062724 52 60 0.0 0.0 0.00 0.00 0.00 96 1016.8
20260505061719 53 60 0.0 0.0 0.00 0.00 0.00 96 1017.0
20260505060714 53 60 0.0 0.0 0.00 0.00 0.00 96 1017.0
20260505055712 53 60 0.0 0.0 0.00 0.00 0.00 96 1017.1
20260505054712 53 60 0.0 0.0 0.00 0.00 0.00 95 1017.3
20260505053708 53 60 0.0 0.0 0.00 0.00 0.00 95 1017.4
20260505052707 53 60 0.0 0.0 0.00 0.00 0.00 95 1017.6
20260505051707 53 60 0.0 0.0 0.00 0.00 0.00 95 1017.6
20260505050703 54 60 0.0 0.0 0.00 0.00 0.00 95 1017.7
20260505041648 54 60 0.0 0.0 0.00 0.00 0.00 93 1017.8
20260505040648 54 60 0.0 0.0 0.00 0.00 0.00 93 1017.5
20260505035648 54 60 0.0 0.0 0.00 0.00 0.00 93 1017.5
20260505034646 55 60 0.0 0.0 0.00 0.00 0.00 92 1017.4
20260505033646 56 60 0.0 0.0 0.00 0.00 0.00 92 1017.6
20260505032642 56 60 0.0 0.0 0.00 0.00 0.00 91 1017.6
20260505031642 56 60 0.0 0.0 0.00 0.00 0.00 91 1017.7
20260505030640 56 60 0.0 0.0 0.00 0.00 0.00 91 1017.7
20260505025637 56 60 0.0 0.0 0.00 0.00 0.00 90 1017.7
20260505024633 57 60 0.0 0.0 0.00 0.00 0.00 90 1017.8
20260505023633 56 60 0.0 0.0 0.00 0.00 0.00 89 1017.9
20260505022628 56 60 0.0 0.0 0.00 0.00 0.00 89 1017.7
20260505021627 56 60 0.0 0.0 0.00 0.00 0.00 89 1017.7
20260505020626 56 60 0.0 0.0 0.00 0.00 0.00 88 1017.8
20260505015625 56 60 0.0 0.0 0.00 0.00 0.00 87 1017.6
20260505014624 57 60 0.0 0.0 0.00 0.00 0.00 86 1017.5
20260505013625 57 60 0.0 0.0 0.00 0.00 0.00 85 1017.5
20260505012620 58 60 0.0 0.0 0.00 0.00 0.00 85 1017.3
20260505011618 58 60 0.0 0.0 0.00 0.00 0.00 83 1017.4
20260505010616 59 60 0.0 0.0 0.00 0.00 0.00 81 1017.2
20260505005615 60 60 0.0 0.0 0.00 0.00 0.00 78 1017.0
20260505004615 60 60 0.0 0.0 0.00 0.00 0.00 76 1016.9
20260505003615 61 60 0.0 0.0 0.00 0.00 0.00 75 1017.0
20260505002614 61 60 0.0 0.0 0.00 0.00 0.00 73 1016.9
20260505001609 62 60 0.0 0.0 0.00 0.00 0.00 72 1016.7
20260505000609 63 60 0.0 0.0 0.00 0.00 0.00 70 1016.7
20260504235609 64 60 0.0 0.0 0.00 0.00 0.00 69 1017.0
20260504234609 65 61 0.0 0.0 0.00 0.00 0.00 65 1016.5
20260504233607 66 64 0.0 0.0 0.00 0.00 0.00 64 1016.6
20260504232607 67 78 1.0 1.0 0.00 0.00 0.00 63 1016.6
20260504231606 68 62 1.0 2.0 0.00 0.00 0.00 60 1016.4
20260504230604 68 100 1.0 3.0 0.00 0.00 0.00 60 1016.8
20260504225601 69 105 0.0 2.0 0.00 0.00 0.00 57 1016.5
20260504224600 69 76 1.0 3.0 0.00 0.00 0.00 56 1016.6
20260504223600 70 17 2.0 5.0 0.00 0.00 0.00 53 1016.5
20260504222559 71 61 4.0 6.0 0.00 0.00 0.00 52 1016.7
20260504221553 71 56 3.0 6.0 0.00 0.00 0.00 53 1016.4
20260504220552 73 8 3.0 6.0 0.00 0.00 0.00 52 1016.4
20260504215552 72 58 1.0 3.0 0.00 0.00 0.00 52 1016.5
20260504214550 72 120 1.0 5.0 0.00 0.00 0.00 51 1016.4
20260504213550 73 56 1.0 6.0 0.00 0.00 0.00 52 1016.5
20260504212548 73 50 3.0 8.0 0.00 0.00 0.00 48 1016.8
20260504211548 73 85 1.0 5.0 0.00 0.00 0.00 49 1016.5
20260504210548 73 86 1.0 8.0 0.00 0.00 0.00 50 1016.7
20260504205548 73 39 3.0 7.0 0.00 0.00 0.00 47 1016.6
20260504204544 74 45 2.0 5.0 0.00 0.00 0.00 47 1016.6
20260504203540 74 351 2.0 3.0 0.00 0.00 0.00 51 1016.7
20260504202539 73 336 3.0 5.0 0.00 0.00 0.00 51 1016.6
20260504201539 73 61 5.0 7.0 0.00 0.00 0.00 49 1016.9
20260504200538 74 356 3.0 6.0 0.00 0.00 0.00 50 1016.8
20260504195537 74 339 2.0 3.0 0.00 0.00 0.00 50 1017.0
20260504194537 74 29 5.0 6.0 0.00 0.00 0.00 48 1016.8
20260504193535 75 35 4.0 6.0 0.00 0.00 0.00 48 1017.0
20260504192531 75 42 3.0 7.0 0.00 0.00 0.00 49 1017.2
20260504191527 75 272 1.0 2.0 0.00 0.00 0.00 51 1017.5
20260504190525 75 50 1.0 7.0 0.00 0.00 0.00 51 1017.3
20260504185524 74 32 3.0 9.0 0.00 0.00 0.00 48 1017.4
20260504184521 74 243 3.0 7.0 0.00 0.00 0.00 44 1017.5
20260504183520 73 139 1.0 9.0 0.00 0.00 0.00 49 1017.7
20260504182520 73 261 3.0 5.0 0.00 0.00 0.00 47 1017.7
20260504181515 75 298 3.0 5.0 0.00 0.00 0.00 45 1017.8
20260504180512 76 7 2.0 6.0 0.00 0.00 0.00 48 1017.8
20260504175507 75 63 2.0 2.0 0.00 0.00 0.00 47 1017.8
20260504174502 76 67 2.0 6.0 0.00 0.00 0.00 47 1017.8
20260504173501 75 168 2.0 3.0 0.00 0.00 0.00 48 1017.7
20260504172500 75 322 3.0 5.0 0.00 0.00 0.00 44 1017.7
20260504171500 74 13 2.0 5.0 0.00 0.00 0.00 51 1017.8
20260504170459 75 58 1.0 3.0 0.00 0.00 0.00 48 1017.8
20260504150437 72 4 3.0 5.0 0.00 0.00 0.00 57 1018.1
20260504140429 69 80 1.0 1.0 0.00 0.00 0.00 62 1018.1
20260504130423 68 90 0.0 1.0 0.00 0.00 0.00 72 1018.6
20260504110357 43 105 0.0 0.0 0.00 0.00 0.00 99 1018.5